Location: Marcé
(47.5801°N, 0.3280°W)
Time: 09:48:25
(UTC+01:00)

Vanguard 1 - Pass Details

Date: 09 December 2021
Orbit: 652 x 3830 km, 34.2° (Epoch: 24 January)

Event Time Altitude Azimuth Distance (km) Brightness Sun altitude
Enters shadow 00:48:23 - 244° (WSW) 6,943 14.3 -65.2°
Rises 00:48:24 0° 244° (WSW) 6,940 - -65.2°
Reaches altitude 10° 00:52:41 10° 240° (WSW) 6,229 - -65.2°
Maximum altitude 01:13:21 55° 170° (S) 4,306 - -64.9°
Exits shadow 01:29:09 23° 107° (ESE) 5,526 13.7 -64.2°
Drops below altitude 10° 01:34:08 10° 101° (E) 6,268 14.1 -63.9°
Sets 01:38:26 0° 97° (E) 6,984 14.5 -63.7°
